Wind_Speed
36 36 36 36 36 36 36 37 38 38 37 36 36 37 37 37 37 37 38 38 37 37 38 38 38 38 39 39 41 41 41 41 41 40 41 41 42 41 40 40 40 41 42 42
37 37 37 37 36 36 37 37 38 38 37 37 37 37 36 37 37 37 37 37 37 36 36 37 36 36 37 38 38 39 39 40 40 40 39 39 40 39 39 38 39 39 40 41
37 37 38 37 37 36 37 37 37 37 37 38 37 37 36 36 37 37 36 36 35 35 35 35 35 34 34 34 35 36 36 37 37 38 38 38 38 38 37 37 37 37 38 39
38 38 38 37 36 36 37 37 36 36 36 37 37 37 36 36 36 35 34 34 34 33 32 33 33 33 33 33 33 33 34 35 35 35 35 36 36 37 37 37 37 36 36 37
38 38 38 36 36 36 37 36 36 36 36 36 36 36 36 35 35 34 34 33 33 32 31 31 32 32 32 32 31 31 31 32 33 33 34 34 34 35 35 36 35 35 35 35
37 37 37 36 36 36 37 36 36 36 35 36 36 35 33 33 34 33 33 33 32 31 31 30 30 30 31 31 31 31 30 31 32 32 32 32 33 33 34 34 34 34 34 34
36 36 36 35 35 36 36 36 36 35 36 35 34 33 32 32 32 33 32 32 32 31 31 31 30 30 30 30 30 30 31 30 30 31 31 31 31 32 32 32 32 33 33 33
36 36 35 35 36 36 36 36 36 36 35 34 33 32 31 31 31 31 31 31 31 31 31 31 31 30 29 29 29 30 30 30 30 30 30 30 30 31 30 30 30 31 33 33
35 35 35 35 36 36 36 36 36 35 34 33 32 31 31 30 30 30 31 31 30 30 30 31 30 30 29 28 28 28 28 28 28 29 29 29 29 29 29 30 29 30 31 32
34 34 35 35 36 37 37 36 35 35 34 33 32 31 31 30 30 30 31 30 30 30 29 30 30 30 29 27 26 26 26 26 27 27 27 28 28 29 29 29 29 28 29 29
34 34 34 35 35 35 35 34 34 33 33 32 32 31 31 31 30 30 30 30 30 31 30 30 29 28 28 28 27 26 26 25 25 26 26 25 26 28 29 28 28 28 28 28
33 33 33 33 34 34 33 33 33 33 32 32 31 31 31 31 30 30 29 30 30 30 29 28 28 27 27 27 27 27 26 26 25 25 25 25 25 26 28 28 28 28 28 28
32 32 32 33 33 33 33 33 32 32 31 31 31 31 31 31 30 30 30 30 29 29 28 28 28 27 27 27 27 26 26 26 26 25 25 25 25 26 26 27 27 27 28 28
31 31 32 32 32 32 32 32 31 31 31 31 31 31 31 31 31 31 30 30 29 28 28 27 27 27 26 26 27 26 26 26 26 26 26 26 26 26 26 27 27 27 28 28
31 31 32 32 32 32 31 31 31 31 31 31 31 31 31 31 30 30 30 30 29 28 28 27 26 26 26 26 27 27 27 27 27 26 26 26 26 27 27 27 27 27 28 28
31 32 32 32 31 31 31 31 31 31 31 31 31 31 30 30 30 30 29 29 28 28 27 27 26 26 27 26 26 26 26 26 27 27 27 27 26 26 27 27 27 27 27 28
31 31 31 31 31 31 31 31 32 32 32 32 31 30 30 29 29 29 29 28 28 27 26 26 26 26 26 26 25 25 25 26 27 27 27 27 27 28 28 28 28 28 27 27
31 31 31 31 30 30 31 31 32 32 32 31 30 29 29 29 29 29 28 27 27 27 26 26 25 25 25 24 24 24 25 25 25 26 27 27 27 27 27 28 28 28 28 28
31 31 31 31 31 31 31 31 31 31 30 29 29 28 28 28 29 28 28 27 27 26 26 25 25 24 24 23 23 23 23 23 23 24 25 25 26 26 26 27 28 28 28 28
31 32 32 31 31 30 30 30 30 30 30 29 29 29 28 28 28 28 27 27 26 26 25 24 24 23 22 22 22 21 21 21 22 22 22 23 23 24 25 26 27 27 28 28
31 31 31 30 30 30 30 30 30 29 29 29 29 29 28 28 27 27 26 26 26 25 24 23 22 21 21 20 20 20 20 20 20 20 21 22 22 23 24 25 26 27 27 27
30 30 30 29 29 29 29 29 29 28 28 28 28 28 27 27 26 26 25 25 24 24 23 22 21 20 20 19 18 18 18 18 18 19 20 21 22 22 23 24 25 26 26 27
30 30 29 29 28 28 28 28 28 28 27 27 27 27 26 26 26 25 25 24 23 22 21 20 20 19 18 17 17 17 17 17 17 18 18 19 20 20 21 22 22 23 24 25
30 29 28 27 27 27 27 28 27 27 27 27 27 27 26 26 25 25 24 23 22 21 20 19 18 17 17 16 16 16 16 16 16 17 17 17 18 18 19 19 20 21 22 23
29 28 27 27 27 27 27 27 27 27 27 27 27 27 26 25 24 24 23 22 21 20 19 18 17 17 16 16 16 16 15 15 15 15 15 15 16 16 17 17 18 18 19 21
28 27 26 26 26 26 26 26 26 26 26 26 26 26 25 24 23 22 22 21 20 19 19 18 17 17 16 16 16 15 15 15 15 15 14 15 15 15 15 16 16 17 18 19
26 26 25 25 26 26 26 25 25 25 25 25 25 24 24 23 22 22 21 20 19 19 19 18 17 17 17 16 16 16 15 15 15 15 15 15 14 14 15 15 16 17 18 18
Wind_Direction
304 305 305 305 305 305 303 303 302 303 302 301 298 296 294 294 293 292 290 288 285 284 282 279 277 275 273 271 270 268 266 264 263 262 262 262 261 260 259 257 256 256 254 254
305 304 303 304 304 303 303 303 303 302 301 300 299 297 295 294 293 292 291 289 286 285 283 279 278 277 275 273 271 268 265 264 263 262 261 261 260 258 257 256 257 257 255 253
305 304 303 303 305 305 304 305 305 304 303 301 299 297 296 295 294 293 291 289 287 285 284 281 278 278 276 274 272 268 266 264 264 263 261 260 259 258 256 255 256 255 254 254
305 305 304 305 305 305 305 306 306 306 305 302 300 299 297 296 296 295 292 291 289 287 285 282 280 277 276 274 273 270 267 265 264 264 262 260 259 257 257 255 255 254 254 253
306 306 306 305 305 305 306 307 307 307 306 303 302 300 299 297 296 295 293 291 289 288 285 284 281 279 276 273 272 270 268 266 266 265 263 260 258 257 256 255 254 253 253 253
306 306 307 307 306 306 307 307 308 307 306 305 304 302 301 298 297 297 295 293 290 287 285 284 283 280 277 273 271 270 268 267 266 266 264 261 258 257 256 255 253 251 251 252
306 306 306 307 307 307 308 309 309 307 307 306 306 305 304 301 299 298 296 294 293 289 285 282 283 281 277 274 271 269 268 268 267 266 264 261 258 258 257 254 252 251 250 250
304 305 307 307 306 307 308 308 308 308 308 308 308 307 305 304 302 300 297 295 293 291 289 286 283 282 277 275 272 270 268 268 267 265 263 260 258 257 256 254 253 252 252 251
303 304 304 305 305 306 306 307 307 308 308 309 308 307 306 305 304 302 300 296 294 292 291 289 286 282 280 277 274 272 270 268 267 265 264 260 257 255 254 253 253 252 253 252
301 302 303 304 304 305 305 306 306 307 308 308 307 307 306 306 304 302 301 299 295 293 292 290 287 284 281 276 274 274 273 269 266 265 263 261 257 253 253 252 251 251 251 251
302 303 303 303 304 305 306 306 306 306 306 307 306 306 306 305 304 303 302 300 298 295 293 291 288 285 282 277 274 274 273 270 267 263 262 261 258 253 251 250 249 249 249 249
304 304 303 304 305 306 306 306 306 306 305 306 306 305 305 305 304 304 303 301 300 297 294 292 290 287 284 279 277 275 273 270 267 265 262 259 257 254 252 251 249 249 248 247
304 305 304 305 306 307 306 306 306 305 305 305 305 305 305 305 304 304 303 302 300 298 295 293 290 287 284 281 280 278 274 271 267 265 263 259 257 254 253 252 250 249 249 249
306 306 306 306 307 307 307 307 307 306 306 306 306 305 305 305 304 304 304 303 301 298 295 293 291 287 284 281 280 279 276 272 268 265 264 261 258 255 254 252 251 251 250 250
307 307 307 306 306 306 307 307 307 307 307 307 306 306 306 306 305 305 305 304 302 300 297 293 291 288 285 282 280 278 276 272 268 266 264 260 258 255 254 252 252 251 252 251
308 308 307 307 306 306 307 308 308 308 308 308 307 306 306 306 306 306 306 305 303 300 298 295 291 289 286 283 282 279 277 274 270 267 264 260 257 255 254 253 252 252 252 251
308 308 307 306 306 306 307 308 308 308 308 307 306 305 305 306 306 307 306 305 304 302 299 296 293 290 287 284 282 280 277 274 270 267 263 259 257 255 254 253 252 251 251 249
308 308 308 307 306 307 308 308 308 308 308 307 307 306 306 306 306 306 306 305 304 303 301 298 295 292 289 284 282 280 278 275 270 267 264 261 259 257 254 251 250 249 248 247
309 309 308 308 307 308 309 309 309 309 309 309 308 307 307 306 306 305 305 305 304 303 301 298 296 294 291 287 283 281 278 274 269 266 264 262 261 259 254 251 249 247 246 247
309 308 308 308 308 309 310 310 309 309 309 309 309 308 308 308 307 306 305 305 304 303 301 298 296 294 291 289 285 283 281 276 270 266 263 260 259 257 256 253 249 247 247 247
309 309 309 309 309 309 310 310 310 309 309 310 310 310 309 309 309 308 307 306 305 304 302 299 296 294 292 290 286 283 282 278 272 266 263 260 259 258 256 254 252 250 248 248
309 310 310 310 310 310 310 311 310 309 309 310 311 311 311 311 310 309 308 308 307 306 305 302 298 295 292 290 287 284 283 279 274 268 265 263 261 260 258 256 253 251 250 249
309 309 310 309 309 310 310 311 311 310 310 310 311 312 312 311 310 309 308 308 307 306 305 303 300 297 295 292 288 286 283 280 277 273 270 268 265 262 259 257 254 252 250 249
308 308 309 309 309 310 310 311 311 310 311 311 312 313 312 311 310 309 308 307 306 305 305 303 301 298 296 294 291 289 286 282 279 277 274 271 268 264 261 258 255 252 251 249
307 307 308 308 309 310 310 310 310 310 311 312 313 314 314 313 311 310 309 308 306 304 303 302 301 298 296 294 293 292 290 287 283 280 276 273 272 268 264 260 256 254 253 251
307 307 307 307 308 309 310 310 309 309 311 312 314 314 315 314 313 312 310 308 307 304 302 300 298 297 295 294 293 291 289 287 284 281 279 277 274 269 265 262 259 257 256 254
307 306 306 307 308 309 310 310 310 311 312 313 314 315 315 314 313 313 312 310 308 305 304 302 299 296 294 293 292 290 288 286 283 280 277 275 274 272 268 264 262 260 258 257
Height
5635 5630 5625 5620 5616 5611 5606 5601 5596 5592 5587 5582 5576 5571 5567 5563 5559 5555 5551 5548 5545 5542 5540 5538 5537 5535 5534 5533 5532 5532 5531 5531 5531 5532 5532 5532 5532 5533 5533 5533 5534 5535 5537 5539
5626 5621 5615 5611 5608 5602 5597 5592 5587 5581 5577 5572 5567 5562 5557 5553 5549 5545 5541 5537 5534 5531 5529 5527 5526 5524 5523 5522 5520 5520 5519 5519 5519 5520 5520 5520 5521 5521 5522 5523 5523 5524 5526 5528
5616 5611 5606 5603 5599 5593 5588 5583 5578 5572 5568 5562 5557 5552 5547 5543 5539 5535 5531 5527 5524 5521 5519 5517 5515 5513 5512 5511 5509 5508 5508 5508 5508 5508 5508 5509 5510 5510 5511 5512 5513 5514 5515 5517
5605 5602 5597 5596 5588 5583 5578 5573 5568 5563 5558 5552 5547 5542 5538 5533 5529 5525 5521 5518 5515 5512 5509 5507 5505 5504 5502 5500 5499 5498 5498 5497 5497 5497 5497 5498 5499 5500 5501 5502 5503 5504 5505 5507
5595 5590 5587 5584 5579 5573 5568 5564 5559 5554 5548 5543 5538 5533 5528 5524 5520 5516 5512 5509 5506 5503 5500 5498 5496 5494 5492 5491 5489 5489 5488 5487 5487 5487 5487 5488 5489 5489 5490 5491 5493 5494 5495 5497
5586 5581 5577 5575 5570 5563 5560 5555 5550 5545 5539 5534 5529 5525 5521 5515 5511 5507 5503 5500 5497 5494 5491 5489 5486 5484 5483 5481 5480 5479 5478 5478 5478 5477 5477 5478 5478 5479 5480 5481 5483 5484 5486 5487
5577 5572 5568 5565 5559 5555 5552 5548 5541 5535 5530 5525 5520 5516 5512 5506 5502 5498 5494 5491 5488 5485 5482 5480 5477 5475 5473 5472 5471 5470 5469 5469 5468 5468 5468 5468 5469 5470 5471 5472 5474 5475 5477 5478
5568 5564 5562 5555 5550 5546 5542 5536 5531 5526 5521 5516 5512 5507 5502 5498 5493 5489 5485 5482 5479 5476 5473 5470 5468 5466 5464 5463 5462 5461 5460 5459 5459 5459 5459 5459 5460 5461 5462 5463 5465 5466 5467 5469
5561 5558 5552 5546 5541 5537 5532 5527 5522 5517 5513 5508 5503 5499 5494 5490 5486 5481 5477 5474 5470 5467 5464 5461 5458 5456 5455 5453 5453 5452 5451 5451 5450 5450 5450 5450 5451 5452 5453 5454 5456 5458 5459 5460
5551 5547 5543 5537 5532 5528 5523 5518 5513 5509 5504 5499 5495 5490 5486 5482 5478 5474 5469 5466 5462 5459 5456 5452 5449 5447 5446 5445 5444 5443 5442 5442 5442 5441 5441 5441 5442 5443 5445 5446 5448 5449 5451 5452
5542 5538 5533 5529 5524 5519 5514 5509 5504 5500 5495 5491 5487 5482 5478 5474 5470 5466 5462 5458 5454 5451 5447 5444 5442 5439 5437 5436 5436 5435 5434 5434 5433 5433 5433 5433 5434 5435 5436 5438 5439 5441 5442 5444
5533 5528 5524 5520 5515 5510 5505 5500 5496 5491 5487 5482 5478 5474 5470 5466 5462 5458 5454 5450 5446 5442 5439 5436 5434 5432 5430 5428 5427 5427 5426 5426 5425 5425 5425 5425 5426 5427 5428 5429 5431 5432 5434 5435
5523 5519 5515 5510 5506 5501 5497 5492 5487 5483 5479 5474 5470 5466 5462 5458 5454 5450 5446 5442 5438 5434 5431 5428 5426 5424 5422 5420 5419 5418 5418 5417 5417 5417 5417 5417 5418 5419 5420 5421 5422 5424 5426 5427
5514 5510 5506 5502 5497 5492 5488 5483 5479 5475 5470 5466 5462 5458 5453 5449 5445 5441 5437 5434 5430 5426 5423 5420 5418 5415 5414 5412 5411 5410 5410 5409 5409 5409 5409 5409 5410 5411 5412 5413 5415 5416 5417 5418
5506 5502 5498 5493 5489 5484 5479 5475 5471 5467 5462 5458 5453 5449 5445 5441 5437 5433 5429 5425 5422 5418 5415 5412 5410 5407 5405 5404 5403 5402 5401 5401 5400 5400 5400 5401 5401 5402 5404 5405 5406 5408 5409 5410
5498 5493 5489 5484 5480 5476 5471 5467 5463 5458 5454 5449 5445 5441 5436 5432 5429 5425 5421 5417 5413 5410 5407 5404 5402 5399 5397 5395 5394 5393 5392 5392 5391 5391 5392 5392 5393 5394 5395 5396 5398 5399 5400 5402
5489 5485 5481 5476 5472 5468 5463 5459 5455 5450 5445 5441 5437 5432 5428 5424 5420 5416 5412 5409 5405 5402 5399 5396 5393 5391 5389 5387 5386 5385 5384 5383 5382 5382 5382 5383 5383 5384 5386 5387 5389 5390 5391 5393
5481 5476 5472 5468 5464 5460 5455 5451 5446 5442 5437 5432 5428 5424 5420 5416 5412 5409 5405 5401 5398 5394 5391 5388 5385 5383 5381 5379 5377 5376 5375 5374 5373 5373 5373 5373 5374 5375 5376 5378 5379 5381 5383 5384
5472 5468 5464 5459 5455 5451 5447 5443 5438 5433 5429 5424 5420 5416 5412 5408 5404 5401 5397 5393 5390 5387 5384 5380 5378 5375 5373 5371 5369 5368 5366 5365 5365 5364 5364 5365 5365 5366 5367 5369 5370 5372 5374 5376
5464 5459 5455 5451 5447 5443 5439 5434 5430 5426 5421 5417 5413 5409 5405 5401 5397 5393 5389 5385 5382 5379 5376 5373 5370 5368 5365 5363 5361 5360 5358 5357 5357 5356 5356 5357 5357 5358 5359 5360 5362 5363 5365 5366
5455 5451 5447 5443 5439 5435 5431 5426 5422 5418 5414 5410 5405 5401 5397 5393 5389 5385 5382 5378 5374 5371 5368 5365 5363 5360 5358 5356 5354 5353 5351 5350 5349 5349 5349 5349 5349 5350 5351 5351 5353 5354 5356 5357
5447 5443 5439 5435 5431 5427 5423 5419 5414 5410 5406 5402 5398 5394 5390 5386 5382 5378 5374 5371 5368 5364 5361 5358 5356 5353 5351 5350 5348 5346 5345 5344 5343 5342 5342 5342 5342 5342 5343 5343 5344 5345 5347 5349
5439 5435 5431 5427 5423 5419 5415 5411 5407 5403 5399 5395 5391 5387 5383 5379 5375 5372 5368 5364 5361 5358 5354 5352 5349 5347 5345 5343 5342 5340 5339 5338 5337 5336 5335 5335 5335 5335 5335 5335 5336 5337 5339 5340
5431 5427 5423 5419 5415 5412 5408 5404 5400 5396 5392 5388 5384 5380 5376 5372 5368 5364 5361 5357 5354 5351 5348 5346 5343 5341 5340 5338 5336 5335 5333 5332 5331 5330 5329 5328 5328 5328 5328 5328 5329 5330 5331 5332
5423 5419 5415 5412 5408 5404 5400 5396 5392 5389 5385 5381 5377 5373 5369 5365 5361 5358 5354 5351 5348 5345 5343 5340 5338 5336 5334 5332 5331 5329 5328 5326 5325 5324 5323 5323 5322 5322 5321 5322 5322 5323 5324 5325
5415 5411 5408 5404 5401 5397 5393 5390 5386 5382 5378 5374 5370 5366 5362 5358 5355 5351 5348 5345 5342 5339 5337 5334 5332 5330 5329 5327 5325 5324 5322 5321 5320 5319 5318 5317 5317 5316 5316 5316 5316 5317 5317 5318
5407 5404 5400 5397 5394 5390 5386 5383 5379 5375 5372 5368 5364 5360 5356 5352 5349 5345 5342 5339 5336 5333 5331 5329 5326 5325 5323 5321 5320 5318 5317 5316 5314 5313 5312 5311 5311 5310 5310 5310 5310 5310 5311 5312